Location: Driftpile
(55.3500°N, 115.7667°W)
Time: 08:42:30
(UTC+00:00)

N. Korean satellite - Pass Details

Date: 29 November 2021
Orbit: 447 x 490 km, 97.3° (Epoch: 26 January)

Event Time Altitude Azimuth Distance (km) Brightness Sun altitude
Rises 11:54:01 0° 29° (NNE) 2,490 10.6 -31.4°
Reaches altitude 10° 11:57:02 10° 59° (ENE) 1,599 9.9 -30.9°
Maximum altitude 11:58:41 13° 88° (E) 1,421 9.7 -30.7°
Drops below altitude 10° 12:00:19 10° 117° (ESE) 1,585 9.8 -30.5°
Sets 12:03:16 0° 146° (SSE) 2,445 10.5 -30.1°
